[[{"header":{"parameterUnit":"m.s-1","parameterCategory":1,"la1":30.2992,"la2":30.254,"lo1":-89.0895,"lo2":-89.0443,"dy":0.0025,"dx":0.0025,"nx":19,"ny":19,"refTime":"2026-03-25T03:00:00:Z","depth":0,"parameterNumber":2,"parameterNumberName":"U-component_of_WINDS"},"data":[0,0,0,-2.4013,-2.4014,-2.4066,-2.4066,-2.4149,-2.4149,0,0,0,0,0,0,0,0,0,0,0,-2.4006,-2.4007,-2.4012,-2.4014,-2.4066,-2.4066,-2.4148,-2.4149,0,0,0,0,0,0,0,0,0,0,0,-2.4005,-2.4006,-2.4008,-2.4014,-2.4066,-2.4066,-2.4148,-2.4103,0,0,0,0,0,0,0,0,0,0,-2.405,-2.4052,-2.4006,-2.4008,-2.4015,-2.4066,-2.4066,-2.4101,-2.4106,-2.4132,0,-2.4156,0,-2.4154,-2.4156,-2.4156,0,0,0,-2.4008,-2.4048,-2.4054,-2.4008,-2.4015,-2.4066,-2.4041,-2.4104,-2.411,-2.4139,-2.4157,-2.4159,-2.4155,-2.4156,-2.4157,-2.4324,-2.4325,0,0,-2.4005,-2.402,-2.405,-2.4059,-2.405,-2.4039,-2.4042,-2.4107,-2.4128,-2.4157,-2.4161,-2.4157,-2.4157,-2.4158,-2.4323,-2.4325,0,0,0,-2.4001,-2.4018,-2.4022,-2.4056,-2.4064,-2.4041,-2.4044,-2.4125,-2.4125,-2.4162,-2.4158,-2.4158,-2.4159,-2.4322,-2.4324,-2.4392,0,0,0,-2.3999,-2.4016,-2.4021,-2.4031,-2.4063,-2.4095,-2.4061,-2.4121,-2.4127,-2.4157,-2.4158,-2.416,-2.4321,-2.4323,-2.4387,-2.4421,0,0,0,-2.4,-2.4016,-2.4026,-2.4032,-2.4055,-2.4093,-2.4097,-2.4122,-2.4125,-2.4156,-2.416,-2.432,-2.4323,-2.4383,-2.4414,-2.4469,0,0,0,-2.4005,-2.4085,-2.4028,-2.4117,-2.4055,-2.4135,-2.4096,-2.4156,-2.419,-2.4158,-2.4321,-2.4324,-2.4382,-2.441,-2.4465,-2.4518,-2.4541,0,0,-2.4115,-2.4099,-2.415,-2.41,-2.4195,-2.4126,-2.4231,-2.4248,-2.4238,-2.4296,-2.43,-2.4389,-2.4414,-2.4468,-2.467,-2.4689,0,0,0,-2.419,-2.4227,-2.4249,-2.4283,-2.4299,-2.4315,-2.4315,-2.4322,-2.4371,-2.4271,-2.4423,-2.4438,-2.4469,-2.4494,-2.451,-2.4536,-2.4336,-2.4336,-2.4335,-2.4366,-2.4349,-2.4433,-2.4423,-2.4457,-2.4457,-2.4484,-2.4493,-2.4465,-2.4502,-2.4519,-2.4643,-2.4672,-2.4684,-2.4712,-2.4546,-2.4546,-2.4547,-2.4547,-2.4526,-2.4575,-2.4539,-2.4607,-2.4589,-2.4647,-2.4652,-2.4631,-2.4682,-2.4628,-2.4655,-2.4597,-2.4705,-2.4729,-2.4552,-2.4551,-2.455,-2.455,-2.4549,-2.4638,-2.4659,-2.4667,-2.4716,-2.4756,-2.4744,-2.4796,-2.4778,-2.4761,-2.4788,-2.4804,-2.4803,-2.4799,-2.4797,-2.4798,-2.4798,-2.4799,-2.4799,-2.4799,-2.4751,-2.4758,-2.4803,-2.4829,-2.485,-2.4875,-2.4879,-2.4899,-2.4917,-2.49,-2.49,-2.4869,-2.4719,-2.4681,-2.4806,-2.4805,-2.4804,-2.4803,-2.4803,-2.4917,-2.4878,-2.4948,-2.4969,-2.4999,-2.504,-2.5018,-2.5061,-2.5076,-2.5102,-2.5067,-2.4959,-2.4942,-2.4929,-2.4897,-2.507,-2.507,-2.507,-2.507,-2.5012,-2.5002,-2.507,-2.5105,-2.5138,-2.5125,-2.5207,-2.5213,-2.5212,-2.522,-2.5193,-2.515,-2.5138,-2.5128,-2.5111,-2.5081,-2.5296,-2.5297,-2.5297,-2.5113,-2.5106,-2.5178,-2.5176,-2.5199,-2.522,-2.5297,-2.534,-2.533,-2.5306,-2.5226,-2.5217,-2.5148,-2.5126,-2.5097,-2.5071,-2.5016,0,0]},{"header":{"parameterUnit":"m.s-1","parameterCategory":1,"la1":30.2992,"la2":30.254,"lo1":-89.0895,"lo2":-89.0443,"dy":0.0025,"dx":0.0025,"nx":19,"ny":19,"refTime":"2026-03-25T03:00:00:Z","depth":0,"parameterNumber":3,"parameterNumberName":"V-component_of_WINDS"},"data":[0,0,0,2.0715,2.0715,2.0759,2.0759,2.0798,2.0798,0,0,0,0,0,0,0,0,0,0,0,2.0693,2.0693,2.0715,2.0715,2.0758,2.0759,2.0798,2.0798,0,0,0,0,0,0,0,0,0,0,0,2.0693,2.0693,2.0693,2.0715,2.0758,2.0759,2.0798,2.0771,0,0,0,0,0,0,0,0,0,0,2.0731,2.0703,2.0693,2.0693,2.0716,2.0758,2.0759,2.077,2.0772,2.0772,0,2.077,0,2.0785,2.08,2.08,0,0,0,2.0722,2.0701,2.0721,2.0693,2.0716,2.0758,2.0741,2.0771,2.0774,2.0775,2.0771,2.0772,2.0785,2.08,2.08,2.0779,2.0779,0,0,2.0719,2.0696,2.0718,2.0722,2.0716,2.0739,2.0742,2.0773,2.0766,2.0771,2.0774,2.0786,2.08,2.08,2.078,2.0779,0,0,0,2.0708,2.0694,2.0713,2.072,2.0729,2.074,2.0744,2.0765,2.0773,2.0774,2.0786,2.08,2.0801,2.078,2.0779,2.0739,0,0,0,2.0707,2.0687,2.0712,2.0698,2.0728,2.0748,2.0734,2.0771,2.0775,2.0786,2.08,2.0801,2.0781,2.078,2.0741,2.0723,0,0,0,2.0693,2.0686,2.0689,2.0696,2.0714,2.0748,2.0758,2.0773,2.0782,2.08,2.0801,2.0781,2.078,2.0742,2.0726,2.0711,0,0,0,2.0671,2.0651,2.0688,2.067,2.0714,2.0722,2.0758,2.0766,2.0776,2.08,2.0781,2.078,2.0743,2.0728,2.0713,2.0695,2.0685,0,0,2.0633,2.0646,2.0637,2.0672,2.0668,2.0718,2.0708,2.0738,2.076,2.0771,2.0771,2.074,2.0726,2.0711,2.0637,2.0629,0,0,0,2.0617,2.0611,2.0615,2.0624,2.0648,2.0667,2.0702,2.0713,2.0724,2.0762,2.0731,2.0724,2.0716,2.0708,2.0701,2.0696,2.0775,2.0775,2.0775,2.0528,2.056,2.0548,2.0584,2.0592,2.0629,2.0639,2.066,2.0688,2.068,2.0684,2.0635,2.0625,2.062,2.0615,2.0676,2.0676,2.0676,2.0676,2.0475,2.0471,2.051,2.0512,2.0545,2.0547,2.0582,2.0601,2.0607,2.0635,2.0629,2.0657,2.061,2.0607,2.0673,2.0674,2.0674,2.0674,2.0674,2.0421,2.0425,2.044,2.0457,2.0467,2.0504,2.0509,2.0538,2.0565,2.056,2.0567,2.0568,2.0572,2.0561,2.0561,2.0561,2.0561,2.0561,2.056,2.0359,2.0377,2.0378,2.0403,2.0413,2.043,2.0467,2.0478,2.0497,2.0518,2.0518,2.0546,2.06,2.0613,2.0558,2.0558,2.0559,2.0559,2.0559,2.0294,2.0313,2.0315,2.0325,2.0357,2.0364,2.0402,2.0421,2.0434,2.0435,2.0465,2.05,2.0515,2.0521,2.0532,2.0459,2.0459,2.0459,2.0459,2.0248,2.0259,2.0268,2.0282,2.03,2.0335,2.0335,2.0363,2.0396,2.0406,2.042,2.0438,2.0442,2.0454,2.0461,2.0472,2.0385,2.0385,2.0385,2.021,2.0224,2.0219,2.0253,2.028,2.0302,2.0303,2.0318,2.0358,2.0383,2.0414,2.0417,2.0445,2.0453,2.0477,2.0488,2.0508,0,0]}]]